TimeIST,TemperatureF,Dew PointF,Humidity,Sea Level PressureIn,VisibilityMPH,Wind Direction,Wind SpeedMPH,Gust SpeedMPH,PrecipitationIn,Events,Conditions,WindDirDegrees,DateUTC
12:00 AM,77.0,62.6,61,29.86,1.6,Calm,Calm,-,N/A,,Haze,0,2012-10-01 18:30:00
1:00 AM,75.2,62.6,65,29.86,1.6,Calm,Calm,-,N/A,,Haze,0,2012-10-01 19:30:00
2:00 AM,75.2,62.6,65,29.86,1.6,Calm,Calm,-,N/A,,Haze,0,2012-10-01 20:30:00
3:00 AM,75.2,62.6,65,29.83,1.6,Calm,Calm,-,N/A,,Haze,0,2012-10-01 21:30:00
5:00 AM,73.4,64.4,73,29.83,1.6,Calm,Calm,-,N/A,,Haze,0,2012-10-01 23:30:00
5:30 AM,73.4,64.4,73,29.83,1.6,Calm,Calm,-,N/A,,Haze,0,2012-10-02 00:00:00
6:00 AM,73.4,64.4,73,29.83,1.6,Calm,Calm,-,N/A,,Haze,0,2012-10-02 00:30:00
6:30 AM,73.4,64.4,73,29.83,1.6,Calm,Calm,-,N/A,,Haze,0,2012-10-02 01:00:00
7:00 AM,73.4,64.4,73,29.83,1.6,Calm,Calm,-,N/A,,Haze,0,2012-10-02 01:30:00
7:30 AM,77.0,64.4,65,29.86,1.6,Calm,Calm,-,N/A,,Haze,0,2012-10-02 02:00:00
8:00 AM,82.4,64.4,54,29.86,1.6,Calm,Calm,-,N/A,,Haze,0,2012-10-02 02:30:00
8:30 AM,85,65,42,29.78,1,Calm,Calm,,,,Haze,,2012-10-02 03:00:00
8:30 AM,84.2,64.4,51,29.86,1.6,Calm,Calm,-,N/A,,Haze,0,2012-10-02 03:00:00
9:00 AM,86.0,64.4,48,29.86,1.6,East,4.6,-,N/A,,Haze,80,2012-10-02 03:30:00
9:30 AM,87.8,64.4,46,29.89,1.6,Variable,3.5,-,N/A,,Haze,0,2012-10-02 04:00:00
10:30 AM,89.6,62.6,40,29.89,2.2,Variable,1.2,-,N/A,,Haze,0,2012-10-02 05:00:00
11:00 AM,91.4,62.6,38,29.86,2.2,Calm,Calm,-,N/A,,Haze,0,2012-10-02 05:30:00
11:30 AM,94,58,20,29.76,1,Calm,Calm,,,,Haze,,2012-10-02 06:00:00
11:30 AM,93.2,60.8,34,29.86,2.2,SSW,3.5,-,N/A,,Haze,210,2012-10-02 06:00:00
12:00 PM,93.2,59.0,32,29.86,2.2,Variable,3.5,-,N/A,,Haze,0,2012-10-02 06:30:00
12:30 PM,93.2,59.0,32,29.86,2.5,West,5.8,-,N/A,,Haze,260,2012-10-02 07:00:00
1:00 PM,93.2,59.0,32,29.83,2.5,Variable,5.8,-,N/A,,Haze,0,2012-10-02 07:30:00
2:00 PM,95.0,59.0,30,29.80,2.5,Variable,5.8,-,N/A,,Haze,0,2012-10-02 08:30:00
2:30 PM,96,56,17,29.70,2,NE,2.3,,,,Haze,50,2012-10-02 09:00:00
3:00 PM,95.0,57.2,28,29.77,2.5,Variable,4.6,-,N/A,,Haze,0,2012-10-02 09:30:00
4:00 PM,95.0,55.4,26,29.77,2.5,Variable,5.8,-,N/A,,Haze,0,2012-10-02 10:30:00
5:00 PM,95.0,57.2,28,29.74,2.5,Variable,4.6,-,N/A,,Haze,0,2012-10-02 11:30:00
5:30 PM,94,52,15,29.65,2,NW,5.8,,,,Haze,320,2012-10-02 12:00:00
6:00 PM,91.4,53.6,28,29.74,2.5,Variable,3.5,-,N/A,,Haze,0,2012-10-02 12:30:00
7:00 PM,86.0,55.4,35,29.74,2.2,Calm,Calm,-,N/A,,Haze,0,2012-10-02 13:30:00
8:00 PM,86.0,55.4,35,29.77,1.9,Calm,Calm,-,N/A,,Haze,0,2012-10-02 14:30:00
8:30 PM,84,61,35,29.74,1,Calm,Calm,,,,Haze,,2012-10-02 15:00:00
9:00 PM,82.4,60.8,48,29.80,1.9,Calm,Calm,-,N/A,,Haze,0,2012-10-02 15:30:00
10:00 PM,80.6,60.8,51,29.80,1.9,Calm,Calm,-,N/A,,Haze,0,2012-10-02 16:30:00
11:00 PM,80.6,60.8,51,29.80,1.9,Calm,Calm,-,N/A,,Haze,0,2012-10-02 17:30:00
11:30 PM,80,61,42,29.73,1,Calm,Calm,,,,Haze,,2012-10-02 18:00:00